sat.trackr.live / text

‹ back to catalog

STARLINK-4084

NORAD 52657 · 2022-053B

PAYLOAD ACTIVE UNKNOWN

§ Identity

Operator
Country
US
Launch date
2022-05-18
Launch site
AFETR
Launch vehicle
Mass (kg)
RCS (m²)

Purposes: comms

External: N2YO · Heavens-Above · Gunter

§ Orbital elements

Epoch: 2026-09-19T19:25:51.782304Z

Period
94.01 min
Inclination
53.1614°
Eccentricity
0.0001373
Mean motion
15.31697667 rev/d
Perigee alt
469.8 km
Apogee alt
471.7 km
Semi-major
6,848.9 km
B*
3.2864e-5
RAAN
348.9983°
Arg perigee
69.7916°
Mean anomaly
290.3233°
Rev number
24,090

§ Raw data

STARLINK-40841 52657U 22053B   26262.80962711  .00000655  00000+0  32864-4 0  99912 52657  53.1614 348.9983 0001373  69.7916 290.3233 15.31697667240901

JSON: /api/v1/satellites/52657 · /tle

For live sub-satellite position, see the globe view (requires WebGL).

§ Visibility from observer

Set your observer location to see the next 7 days of passes ≥ 10°. The values pass through the URL so the page stays shareable.

No JS? Fill the form by hand. The geolocation button needs JavaScript.